Time,TemperatureF,DewpointF,PressureIn,WindDirection,WindDirectionDegrees,WindSpeedMPH,WindSpeedGustMPH,Humidity,HourlyPrecipIn,Conditions,Clouds,dailyrainin,SoftwareType,DateUTC
2013-05-03 00:00:00,71.6,68.8,29.85,SE,133,4.0,4.0,91,0.00,,SCT020,0.00,VWS V14.01,2013-05-03 04:00:00,
2013-05-03 00:01:00,71.6,69.2,29.85,SE,137,2.0,4.0,92,0.00,,SCT020,0.00,VWS V14.01,2013-05-03 04:01:00,
2013-05-03 00:06:00,71.6,68.8,29.85,SE,141,0.0,10.0,91,0.00,,FEW017,0.00,VWS V14.01,2013-05-03 04:06:00,
2013-05-03 00:11:00,71.5,68.4,29.85,SSE,149,5.0,10.0,90,0.00,,FEW017,0.00,VWS V14.01,2013-05-03 04:11:00,
2013-05-03 00:16:00,71.5,68.4,29.85,SE,143,0.0,10.0,90,0.00,,FEW017,0.00,VWS V14.01,2013-05-03 04:16:00,
2013-05-03 00:21:00,71.4,68.0,29.85,SSE,159,2.0,10.0,89,0.00,,FEW017,0.00,VWS V14.01,2013-05-03 04:21:00,
2013-05-03 00:26:00,71.4,68.3,29.86,SSE,164,0.0,10.0,90,0.00,,FEW017,0.00,VWS V14.01,2013-05-03 04:26:00,
2013-05-03 00:31:00,71.5,68.1,29.85,SSE,162,0.0,10.0,89,0.00,,FEW017,0.00,VWS V14.01,2013-05-03 04:31:00,
2013-05-03 00:36:00,71.4,68.0,29.85,SSE,164,0.0,10.0,89,0.00,,FEW017,0.00,VWS V14.01,2013-05-03 04:36:00,
2013-05-03 00:41:00,71.5,68.1,29.84,SSE,164,0.0,10.0,89,0.00,,FEW017,0.00,VWS V14.01,2013-05-03 04:41:00,
2013-05-03 00:46:00,71.5,68.4,29.84,SSE,158,0.0,10.0,90,0.00,,FEW017,0.00,VWS V14.01,2013-05-03 04:46:00,
2013-05-03 00:51:00,71.6,68.5,29.84,SE,132,3.0,10.0,90,0.00,,FEW017,0.00,VWS V14.01,2013-05-03 04:51:00,
2013-05-03 00:56:00,71.7,68.6,29.84,SE,127,2.0,10.0,90,0.00,,FEW017,0.00,VWS V14.01,2013-05-03 04:56:00,
2013-05-03 01:01:00,71.7,68.9,29.84,SE,126,5.0,5.0,91,0.00,,BKN110,0.00,VWS V14.01,2013-05-03 05:01:00,
2013-05-03 01:06:00,71.9,69.4,29.84,SSE,160,0.0,7.0,92,0.00,,BKN110,0.00,VWS V14.01,2013-05-03 05:06:00,
2013-05-03 01:11:00,72.0,69.2,29.84,SSE,163,0.0,7.0,91,0.00,,BKN110,0.00,VWS V14.01,2013-05-03 05:11:00,
2013-05-03 01:16:00,72.0,69.2,29.83,SE,134,3.0,7.0,91,0.00,,BKN110,0.00,VWS V14.01,2013-05-03 05:16:00,
2013-05-03 01:21:00,72.0,69.2,29.83,SSE,152,6.0,7.0,91,0.00,,BKN110,0.00,VWS V14.01,2013-05-03 05:21:00,
2013-05-03 01:26:00,72.0,69.2,29.83,SSE,162,2.0,7.0,91,0.00,,BKN110,0.00,VWS V14.01,2013-05-03 05:26:00,
2013-05-03 01:31:00,72.0,69.2,29.83,SSE,166,0.0,7.0,91,0.00,,BKN110,0.00,VWS V14.01,2013-05-03 05:31:00,
2013-05-03 01:36:00,71.9,69.1,29.83,SE,124,0.0,7.0,91,0.00,,BKN110,0.00,VWS V14.01,2013-05-03 05:36:00,
2013-05-03 01:41:00,71.9,69.1,29.83,SSE,154,0.0,7.0,91,0.00,,BKN110,0.00,VWS V14.01,2013-05-03 05:41:00,
2013-05-03 01:46:00,71.8,69.0,29.82,SSE,151,2.0,7.0,91,0.00,,BKN110,0.00,VWS V14.01,2013-05-03 05:46:00,
2013-05-03 01:51:00,71.7,68.9,29.82,SE,133,2.0,7.0,91,0.00,,BKN110,0.00,VWS V14.01,2013-05-03 05:51:00,
2013-05-03 01:56:00,71.6,68.8,29.82,SE,132,0.0,7.0,91,0.00,,BKN110,0.00,VWS V14.01,2013-05-03 05:56:00,
2013-05-03 02:01:00,71.5,68.4,29.81,SE,132,0.0,0.0,90,0.00,,CLR,0.00,VWS V14.01,2013-05-03 06:01:00,
2013-05-03 02:06:00,71.4,68.3,29.81,SE,132,0.0,0.0,90,0.00,,CLR,0.00,VWS V14.01,2013-05-03 06:06:00,
2013-05-03 02:11:00,71.4,68.3,29.80,SE,132,0.0,0.0,90,0.00,,CLR,0.00,VWS V14.01,2013-05-03 06:11:00,
2013-05-03 02:16:00,71.4,68.6,29.80,SE,132,0.0,0.0,91,0.00,,CLR,0.00,VWS V14.01,2013-05-03 06:16:00,
2013-05-03 02:21:00,71.3,68.2,29.80,SE,132,0.0,0.0,90,0.00,,CLR,0.00,VWS V14.01,2013-05-03 06:21:00,
2013-05-03 02:26:00,71.3,68.5,29.80,SE,132,0.0,0.0,91,0.00,,CLR,0.00,VWS V14.01,2013-05-03 06:26:00,
2013-05-03 02:31:00,71.2,68.1,29.80,SE,132,0.0,0.0,90,0.00,,CLR,0.00,VWS V14.01,2013-05-03 06:31:00,
2013-05-03 02:36:00,71.1,68.0,29.80,SE,132,0.0,0.0,90,0.00,,CLR,0.00,VWS V14.01,2013-05-03 06:36:00,
2013-05-03 02:41:00,71.1,68.0,29.80,SE,132,0.0,0.0,90,0.00,,CLR,0.00,VWS V14.01,2013-05-03 06:41:00,
2013-05-03 02:46:00,70.9,68.2,29.80,SE,132,0.0,0.0,91,0.00,,CLR,0.00,VWS V14.01,2013-05-03 06:46:00,
2013-05-03 02:51:00,70.8,68.1,29.80,SE,131,0.0,0.0,91,0.00,,CLR,0.00,VWS V14.01,2013-05-03 06:51:00,
2013-05-03 02:56:00,70.6,67.8,29.80,SE,131,0.0,0.0,91,0.00,,CLR,0.00,VWS V14.01,2013-05-03 06:56:00,
2013-05-03 03:01:00,70.5,67.8,29.79,SE,131,0.0,0.0,91,0.00,,FEW023,0.00,VWS V14.01,2013-05-03 07:01:00,
2013-05-03 03:06:00,70.4,67.7,29.79,SE,131,0.0,0.0,91,0.00,,FEW023,0.00,VWS V14.01,2013-05-03 07:06:00,
2013-05-03 03:11:00,70.3,67.9,29.79,SE,131,0.0,0.0,92,0.00,,FEW023,0.00,VWS V14.01,2013-05-03 07:11:00,
2013-05-03 03:16:00,70.3,67.9,29.79,SE,129,0.0,0.0,92,0.00,,FEW023,0.00,VWS V14.01,2013-05-03 07:16:00,
2013-05-03 03:21:00,70.3,67.9,29.79,SE,130,0.0,0.0,92,0.00,,FEW023,0.00,VWS V14.01,2013-05-03 07:21:00,
2013-05-03 03:26:00,70.2,67.8,29.78,SE,132,0.0,0.0,92,0.00,,FEW023,0.00,VWS V14.01,2013-05-03 07:26:00,
2013-05-03 03:31:00,70.2,67.8,29.78,SE,132,0.0,0.0,92,0.00,,FEW023,0.00,VWS V14.01,2013-05-03 07:31:00,
2013-05-03 03:36:00,70.2,67.8,29.78,SE,132,0.0,0.0,92,0.00,,FEW023,0.00,VWS V14.01,2013-05-03 07:36:00,
2013-05-03 03:41:00,70.1,67.7,29.78,SE,131,0.0,0.0,92,0.00,,FEW023,0.00,VWS V14.01,2013-05-03 07:41:00,
2013-05-03 03:46:00,70.1,67.7,29.77,SE,132,0.0,0.0,92,0.00,,FEW023,0.00,VWS V14.01,2013-05-03 07:46:00,
2013-05-03 03:51:00,70.0,67.6,29.78,SE,132,0.0,0.0,92,0.00,,FEW023,0.00,VWS V14.01,2013-05-03 07:51:00,
2013-05-03 03:56:00,69.9,67.5,29.78,SE,132,0.0,0.0,92,0.00,,FEW023,0.00,VWS V14.01,2013-05-03 07:56:00,
2013-05-03 04:01:00,69.8,67.4,29.77,SE,132,0.0,0.0,92,0.00,,FEW024,0.00,VWS V14.01,2013-05-03 08:01:00,
2013-05-03 04:06:00,69.7,67.3,29.77,SE,131,0.0,0.0,92,0.00,,FEW024,0.00,VWS V14.01,2013-05-03 08:06:00,
2013-05-03 04:11:00,69.7,67.3,29.77,SE,132,0.0,0.0,92,0.00,,FEW024,0.00,VWS V14.01,2013-05-03 08:11:00,
2013-05-03 04:16:00,69.6,67.2,29.77,SE,132,0.0,0.0,92,0.00,,FEW024,0.00,VWS V14.01,2013-05-03 08:16:00,
2013-05-03 04:21:00,69.5,67.1,29.77,SE,132,0.0,0.0,92,0.00,,BKN040,0.00,VWS V14.01,2013-05-03 08:21:00,
2013-05-03 04:26:00,69.5,67.1,29.77,SE,132,0.0,0.0,92,0.00,,BKN040,0.00,VWS V14.01,2013-05-03 08:26:00,
2013-05-03 04:31:00,69.5,67.4,29.77,ESE,116,4.0,6.0,93,0.00,,BKN040,0.00,VWS V14.01,2013-05-03 08:31:00,
2013-05-03 04:36:00,69.6,67.5,29.77,SE,144,4.0,6.0,93,0.00,,OVC060,0.00,VWS V14.01,2013-05-03 08:36:00,
2013-05-03 04:41:00,69.8,68.0,29.77,SE,135,4.0,6.0,94,0.01,,OVC060,0.01,VWS V14.01,2013-05-03 08:41:00,
2013-05-03 04:46:00,70.0,68.2,29.77,SSE,168,2.0,6.0,94,0.01,,OVC060,0.01,VWS V14.01,2013-05-03 08:46:00,
2013-05-03 04:51:00,70.2,68.4,29.77,SSW,192,1.0,11.0,94,0.01,,OVC060,0.01,VWS V14.01,2013-05-03 08:51:00,
2013-05-03 04:56:00,70.3,68.5,29.77,South,177,7.0,11.0,94,0.01,,OVC060,0.01,VWS V14.01,2013-05-03 08:56:00,
2013-05-03 05:01:00,70.4,68.6,29.77,South,175,7.0,8.0,94,0.01,,BKN090,0.01,VWS V14.01,2013-05-03 09:01:00,
2013-05-03 05:06:00,70.4,68.3,29.77,SSE,161,0.0,8.0,93,0.01,,BKN090,0.01,VWS V14.01,2013-05-03 09:06:00,
2013-05-03 05:11:00,70.4,68.6,29.77,SSE,161,3.0,8.0,94,0.01,,BKN090,0.01,VWS V14.01,2013-05-03 09:11:00,
2013-05-03 05:16:00,70.5,68.4,29.78,SSE,161,2.0,8.0,93,0.01,,BKN090,0.01,VWS V14.01,2013-05-03 09:16:00,
2013-05-03 05:21:00,70.5,68.7,29.77,SSE,161,0.0,8.0,94,0.01,,BKN090,0.01,VWS V14.01,2013-05-03 09:21:00,
2013-05-03 05:26:00,70.5,68.7,29.78,SSE,161,0.0,8.0,94,0.01,,BKN090,0.01,VWS V14.01,2013-05-03 09:26:00,
2013-05-03 05:31:00,70.5,68.7,29.78,SSE,161,0.0,8.0,94,0.01,,BKN090,0.01,VWS V14.01,2013-05-03 09:31:00,
2013-05-03 05:36:00,70.5,68.7,29.78,SSE,161,0.0,8.0,94,0.01,,BKN036,0.01,VWS V14.01,2013-05-03 09:36:00,
2013-05-03 05:41:00,70.5,68.7,29.78,SSE,161,0.0,8.0,94,0.01,,BKN036,0.01,VWS V14.01,2013-05-03 09:41:00,
2013-05-03 05:46:00,70.5,68.4,29.77,SSE,162,0.0,8.0,93,0.01,,OVC090,0.01,VWS V14.01,2013-05-03 09:46:00,
2013-05-03 05:51:00,70.5,68.4,29.77,SSE,162,0.0,8.0,93,0.01,,OVC090,0.01,VWS V14.01,2013-05-03 09:51:00,
2013-05-03 05:56:00,70.5,68.4,29.77,SSE,162,0.0,8.0,93,0.01,,OVC090,0.01,VWS V14.01,2013-05-03 09:56:00,
2013-05-03 06:01:00,70.5,68.4,29.77,SSE,162,0.0,0.0,93,0.00,,OVC090,0.01,VWS V14.01,2013-05-03 10:01:00,
2013-05-03 06:06:00,70.4,68.3,29.77,SSE,162,0.0,0.0,93,0.00,,OVC090,0.01,VWS V14.01,2013-05-03 10:06:00,
2013-05-03 06:11:00,70.4,68.3,29.77,SSE,162,0.0,0.0,93,0.00,,OVC090,0.01,VWS V14.01,2013-05-03 10:11:00,
2013-05-03 06:16:00,70.4,68.3,29.77,SSE,162,0.0,0.0,93,0.00,,OVC090,0.01,VWS V14.01,2013-05-03 10:16:00,
2013-05-03 06:21:00,70.3,68.2,29.77,SSE,162,0.0,1.0,93,0.00,,OVC090,0.01,VWS V14.01,2013-05-03 10:21:00,
2013-05-03 06:26:00,70.4,68.3,29.77,SSE,162,0.0,1.0,93,0.00,,OVC090,0.01,VWS V14.01,2013-05-03 10:26:00,
2013-05-03 06:31:00,70.4,68.3,29.77,SSE,162,0.0,1.0,93,0.00,,BKN049,0.01,VWS V14.01,2013-05-03 10:31:00,
2013-05-03 06:36:00,70.3,68.2,29.77,SSE,162,0.0,1.0,93,0.00,,BKN049,0.01,VWS V14.01,2013-05-03 10:36:00,
2013-05-03 06:41:00,70.2,68.1,29.77,SSE,162,0.0,1.0,93,0.00,,BKN049,0.01,VWS V14.01,2013-05-03 10:41:00,
2013-05-03 06:46:00,70.1,68.0,29.77,WSW,247,3.0,4.0,93,0.00,,BKN049,0.01,VWS V14.01,2013-05-03 10:46:00,
2013-05-03 06:51:00,70.1,67.7,29.76,WSW,257,2.0,5.0,92,0.00,,BKN049,0.01,VWS V14.01,2013-05-03 10:51:00,
2013-05-03 06:56:00,70.0,67.6,29.76,WSW,258,0.0,5.0,92,0.00,,BKN049,0.01,VWS V14.01,2013-05-03 10:56:00,
2013-05-03 07:01:00,69.9,67.5,29.76,West,259,3.0,3.0,92,0.00,,-RA,0.01,VWS V14.01,2013-05-03 11:01:00,
2013-05-03 07:06:00,69.8,67.4,29.76,West,259,2.0,3.0,92,0.00,,-RA,0.01,VWS V14.01,2013-05-03 11:06:00,
2013-05-03 07:11:00,69.7,67.3,29.77,West,259,0.0,3.0,92,0.00,,-RA,0.01,VWS V14.01,2013-05-03 11:11:00,
2013-05-03 07:16:00,69.7,67.6,29.77,West,259,2.0,4.0,93,0.00,,BKN047,0.01,VWS V14.01,2013-05-03 11:16:00,
2013-05-03 07:21:00,69.6,67.5,29.78,West,259,2.0,4.0,93,0.00,,BKN047,0.01,VWS V14.01,2013-05-03 11:21:00,
2013-05-03 07:26:00,69.5,67.4,29.78,West,259,0.0,4.0,93,0.00,,BKN047,0.01,VWS V14.01,2013-05-03 11:26:00,
2013-05-03 07:31:00,69.5,67.4,29.78,WSW,258,0.0,4.0,93,0.00,,BKN047,0.01,VWS V14.01,2013-05-03 11:31:00,
2013-05-03 07:36:00,69.5,67.4,29.78,West,259,0.0,4.0,93,0.00,,BKN047,0.01,VWS V14.01,2013-05-03 11:36:00,
2013-05-03 07:41:00,69.5,67.7,29.77,West,259,0.0,4.0,94,0.00,,BKN047,0.01,VWS V14.01,2013-05-03 11:41:00,
2013-05-03 07:46:00,69.5,67.7,29.77,West,259,0.0,4.0,94,0.00,,BKN047,0.01,VWS V14.01,2013-05-03 11:46:00,
2013-05-03 07:51:00,69.5,67.4,29.77,West,259,0.0,4.0,93,0.00,,BKN047,0.01,VWS V14.01,2013-05-03 11:51:00,
2013-05-03 07:56:00,69.6,67.5,29.77,West,259,0.0,4.0,93,0.00,,BKN047,0.01,VWS V14.01,2013-05-03 11:56:00,
2013-05-03 08:01:00,69.4,67.3,29.77,West,259,0.0,0.0,93,0.00,,FEW050,0.01,VWS V14.01,2013-05-03 12:01:00,
2013-05-03 08:06:00,69.4,67.3,29.78,West,259,0.0,2.0,93,0.00,,FEW050,0.01,VWS V14.01,2013-05-03 12:06:00,
2013-05-03 08:11:00,69.4,67.6,29.78,West,259,0.0,2.0,94,0.00,,FEW050,0.01,VWS V14.01,2013-05-03 12:11:00,
2013-05-03 08:16:00,69.4,67.6,29.78,West,259,0.0,2.0,94,0.00,,FEW050,0.01,VWS V14.01,2013-05-03 12:16:00,
2013-05-03 08:21:00,69.4,67.6,29.78,West,260,0.0,2.0,94,0.00,,FEW050,0.01,VWS V14.01,2013-05-03 12:21:00,
2013-05-03 08:26:00,69.4,67.6,29.78,West,273,1.0,4.0,94,0.00,,FEW050,0.01,VWS V14.01,2013-05-03 12:26:00,
2013-05-03 08:31:00,69.6,67.8,29.78,West,273,0.0,4.0,94,0.00,,FEW050,0.01,VWS V14.01,2013-05-03 12:31:00,
2013-05-03 08:36:00,69.7,67.9,29.78,NW,307,0.0,6.0,94,0.00,,FEW050,0.01,VWS V14.01,2013-05-03 12:36:00,
2013-05-03 08:41:00,69.9,68.4,29.77,NW,317,2.0,6.0,95,0.00,,FEW050,0.01,VWS V14.01,2013-05-03 12:41:00,
2013-05-03 08:46:00,70.1,68.6,29.77,NW,315,0.0,6.0,95,0.00,,FEW050,0.01,VWS V14.01,2013-05-03 12:46:00,
2013-05-03 08:51:00,70.5,69.0,29.77,NW,319,2.0,6.0,95,0.00,,FEW050,0.01,VWS V14.01,2013-05-03 12:51:00,
2013-05-03 08:56:00,70.7,69.2,29.77,West,273,3.0,6.0,95,0.00,,FEW050,0.01,VWS V14.01,2013-05-03 12:56:00,
2013-05-03 09:01:00,71.1,69.6,29.77,NW,310,0.0,1.0,95,0.00,,SCT050,0.01,VWS V14.01,2013-05-03 13:01:00,
2013-05-03 09:06:00,71.4,69.9,29.77,NNW,329,0.0,3.0,95,0.00,,SCT050,0.01,VWS V14.01,2013-05-03 13:06:00,
2013-05-03 09:11:00,71.7,69.9,29.78,NW,312,4.0,6.0,94,0.00,,SCT050,0.01,VWS V14.01,2013-05-03 13:11:00,
2013-05-03 09:16:00,72.0,70.2,29.78,WNW,294,3.0,7.0,94,0.00,,SCT050,0.01,VWS V14.01,2013-05-03 13:16:00,
2013-05-03 09:21:00,72.3,70.2,29.78,WNW,294,1.0,7.0,93,0.00,,SCT050,0.01,VWS V14.01,2013-05-03 13:21:00,
2013-05-03 09:26:00,72.6,70.2,29.78,WNW,298,0.0,7.0,92,0.00,,SCT050,0.01,VWS V14.01,2013-05-03 13:26:00,
2013-05-03 09:31:00,73.0,70.2,29.78,NW,306,4.0,8.0,91,0.00,,SCT050,0.01,VWS V14.01,2013-05-03 13:31:00,
2013-05-03 09:36:00,73.3,70.2,29.78,NNW,343,4.0,8.0,90,0.00,,SCT050,0.01,VWS V14.01,2013-05-03 13:36:00,
2013-05-03 09:41:00,73.8,70.0,29.78,WNW,292,3.0,8.0,88,0.00,,SCT050,0.01,VWS V14.01,2013-05-03 13:41:00,
2013-05-03 09:46:00,74.2,70.4,29.78,NW,310,3.0,8.0,88,0.00,,SCT050,0.01,VWS V14.01,2013-05-03 13:46:00,
2013-05-03 09:51:00,74.7,70.9,29.79,West,270,2.0,8.0,88,0.00,,SCT050,0.01,VWS V14.01,2013-05-03 13:51:00,
2013-05-03 09:56:00,74.9,70.4,29.78,West,277,1.0,8.0,86,0.00,,SCT050,0.01,VWS V14.01,2013-05-03 13:56:00,
2013-05-03 10:01:00,75.3,70.8,29.78,West,262,4.0,8.0,86,0.00,,FEW019,0.01,VWS V14.01,2013-05-03 14:01:00,
2013-05-03 10:06:00,75.6,70.4,29.78,NW,316,4.0,10.0,84,0.00,,FEW019,0.01,VWS V14.01,2013-05-03 14:06:00,
2013-05-03 10:11:00,76.0,71.2,29.78,NNW,337,2.0,10.0,85,0.00,,FEW019,0.01,VWS V14.01,2013-05-03 14:11:00,
2013-05-03 10:16:00,76.2,70.3,29.78,WNW,297,3.0,10.0,82,0.00,,FEW019,0.01,VWS V14.01,2013-05-03 14:16:00,
2013-05-03 10:21:00,76.4,69.8,29.78,WNW,295,5.0,10.0,80,0.00,,FEW019,0.01,VWS V14.01,2013-05-03 14:21:00,
2013-05-03 10:26:00,76.5,69.9,29.79,NW,305,1.0,10.0,80,0.00,,FEW019,0.01,VWS V14.01,2013-05-03 14:26:00,
2013-05-03 10:31:00,76.7,70.4,29.79,WNW,290,3.0,11.0,81,0.00,,FEW019,0.01,VWS V14.01,2013-05-03 14:31:00,
2013-05-03 10:36:00,77.1,70.8,29.78,West,269,5.0,11.0,81,0.00,,FEW019,0.01,VWS V14.01,2013-05-03 14:36:00,
2013-05-03 10:41:00,77.4,70.8,29.79,WNW,297,3.0,11.0,80,0.00,,FEW019,0.01,VWS V14.01,2013-05-03 14:41:00,
2013-05-03 10:46:00,77.7,70.7,29.79,WNW,300,3.0,11.0,79,0.00,,FEW019,0.01,VWS V14.01,2013-05-03 14:46:00,
2013-05-03 10:51:00,77.9,70.5,29.79,NNW,327,6.0,11.0,78,0.00,,FEW019,0.01,VWS V14.01,2013-05-03 14:51:00,
2013-05-03 10:56:00,77.9,70.1,29.78,NW,306,5.0,11.0,77,0.00,,FEW019,0.01,VWS V14.01,2013-05-03 14:56:00,
2013-05-03 11:01:00,77.7,69.9,29.78,WNW,291,4.0,4.0,77,0.00,,FEW025,0.01,VWS V14.01,2013-05-03 15:01:00,
2013-05-03 11:06:00,77.8,70.4,29.78,NW,311,2.0,9.0,78,0.00,,FEW025,0.01,VWS V14.01,2013-05-03 15:06:00,
2013-05-03 11:11:00,77.8,70.0,29.78,West,272,4.0,9.0,77,0.00,,FEW025,0.01,VWS V14.01,2013-05-03 15:11:00,
2013-05-03 11:16:00,78.2,71.2,29.78,NW,315,4.0,9.0,79,0.00,,FEW025,0.01,VWS V14.01,2013-05-03 15:16:00,
2013-05-03 11:21:00,78.6,70.4,29.78,WNW,292,7.0,11.0,76,0.00,,FEW025,0.01,VWS V14.01,2013-05-03 15:21:00,
2013-05-03 11:26:00,78.6,70.8,29.78,WNW,291,4.0,11.0,77,0.00,,FEW025,0.01,VWS V14.01,2013-05-03 15:26:00,
2013-05-03 11:31:00,78.8,71.4,29.78,NW,318,3.0,11.0,78,0.00,,FEW025,0.01,VWS V14.01,2013-05-03 15:31:00,
2013-05-03 11:36:00,79.1,70.9,29.78,NW,312,0.0,11.0,76,0.00,,FEW025,0.01,VWS V14.01,2013-05-03 15:36:00,
2013-05-03 11:41:00,79.1,70.9,29.78,NW,312,3.0,11.0,76,0.00,,FEW025,0.01,VWS V14.01,2013-05-03 15:41:00,
2013-05-03 11:46:00,79.5,72.0,29.78,WNW,284,5.0,11.0,78,0.00,,FEW025,0.01,VWS V14.01,2013-05-03 15:46:00,
2013-05-03 11:51:00,79.7,70.7,29.77,WNW,301,4.0,11.0,74,0.00,,FEW025,0.01,VWS V14.01,2013-05-03 15:51:00,
2013-05-03 11:56:00,80.1,71.1,29.77,NW,323,4.0,11.0,74,0.00,,FEW025,0.01,VWS V14.01,2013-05-03 15:56:00,
2013-05-03 12:01:00,80.5,71.5,29.77,NW,313,3.0,7.0,74,0.00,,SCT060,0.01,VWS V14.01,2013-05-03 16:01:00,
2013-05-03 12:06:00,80.6,71.6,29.77,WSW,255,3.0,10.0,74,0.00,,SCT060,0.01,VWS V14.01,2013-05-03 16:06:00,
2013-05-03 12:11:00,80.8,71.7,29.77,NNW,330,2.0,10.0,74,0.00,,SCT060,0.01,VWS V14.01,2013-05-03 16:11:00,
2013-05-03 12:15:00,79.1,70.5,29.77,NNE,27,3.0,11.0,75,0.00,,SCT060,0.01,VWS V14.01,2013-05-03 16:15:00,
2013-05-03 12:20:00,78.4,70.6,29.77,NNE,28,3.0,11.0,77,0.00,,SCT060,0.01,VWS V14.01,2013-05-03 16:20:00,
2013-05-03 12:25:00,78.0,70.6,29.77,NNE,29,0.0,11.0,78,0.00,,SCT060,0.01,VWS V14.01,2013-05-03 16:25:00,
2013-05-03 12:30:00,78.0,71.0,29.77,NNW,340,5.0,11.0,79,0.00,,SCT060,0.01,VWS V14.01,2013-05-03 16:30:00,
2013-05-03 12:35:00,77.3,70.3,29.76,NNE,24,0.0,11.0,79,0.00,,SCT060,0.01,VWS V14.01,2013-05-03 16:35:00,
2013-05-03 12:41:00,77.1,70.1,29.76,NE,35,4.0,11.0,79,0.00,,SCT060,0.01,VWS V14.01,2013-05-03 16:41:00,
2013-05-03 12:45:00,77.6,70.6,29.76,NNE,21,0.0,11.0,79,0.00,,SCT060,0.01,VWS V14.01,2013-05-03 16:45:00,
2013-05-03 12:50:00,78.0,70.6,29.77,NE,35,0.0,11.0,78,0.00,,SCT060,0.01,VWS V14.01,2013-05-03 16:50:00,
2013-05-03 12:55:00,78.4,70.2,29.76,North,353,2.0,11.0,76,0.00,,SCT060,0.01,VWS V14.01,2013-05-03 16:55:00,
2013-05-03 13:00:00,78.1,70.3,29.76,NE,39,6.0,7.0,77,0.00,,SCT060,0.01,VWS V14.01,2013-05-03 17:00:00,
2013-05-03 13:05:00,78.5,70.3,29.75,NNE,27,5.0,7.0,76,0.00,,SCT060,0.01,VWS V14.01,2013-05-03 17:05:00,
2013-05-03 13:10:00,78.8,71.0,29.75,North,359,0.0,7.0,77,0.00,,SCT060,0.01,VWS V14.01,2013-05-03 17:10:00,
2013-05-03 13:15:00,78.6,70.8,29.75,North,351,0.0,7.0,77,0.00,,SCT060,0.01,VWS V14.01,2013-05-03 17:15:00,
2013-05-03 13:20:00,78.8,71.4,29.75,North,349,0.0,7.0,78,0.00,,SCT060,0.01,VWS V14.01,2013-05-03 17:20:00,
2013-05-03 13:26:00,79.1,70.9,29.75,NW,307,3.0,7.0,76,0.00,,SCT060,0.01,VWS V14.01,2013-05-03 17:26:00,
2013-05-03 13:31:00,79.4,71.2,29.75,WNW,293,6.0,11.0,76,0.00,,SCT060,0.01,VWS V14.01,2013-05-03 17:31:00,
2013-05-03 13:36:00,79.9,71.3,29.75,West,265,4.0,11.0,75,0.00,,SCT060,0.01,VWS V14.01,2013-05-03 17:36:00,
2013-05-03 13:41:00,80.6,71.9,29.74,NNW,347,0.0,11.0,75,0.00,,SCT060,0.01,VWS V14.01,2013-05-03 17:41:00,
2013-05-03 13:46:00,81.3,72.2,29.74,NW,305,4.0,11.0,74,0.00,,SCT060,0.01,VWS V14.01,2013-05-03 17:46:00,
2013-05-03 13:51:00,81.8,72.7,29.74,WNW,288,5.0,11.0,74,0.00,,SCT060,0.01,VWS V14.01,2013-05-03 17:51:00,
2013-05-03 13:56:00,82.3,71.5,29.74,NW,306,0.0,11.0,70,0.00,,SCT060,0.01,VWS V14.01,2013-05-03 17:56:00,
2013-05-03 14:01:00,82.4,70.8,29.73,WNW,286,3.0,6.0,68,0.00,,SCT042,0.01,VWS V14.01,2013-05-03 18:01:00,
2013-05-03 14:06:00,82.4,70.8,29.74,NW,306,5.0,10.0,68,0.00,,SCT042,0.01,VWS V14.01,2013-05-03 18:06:00,
2013-05-03 14:11:00,82.4,72.1,29.74,West,267,7.0,10.0,71,0.00,,SCT042,0.01,VWS V14.01,2013-05-03 18:11:00,
2013-05-03 14:16:00,82.3,71.1,29.73,WNW,294,3.0,10.0,69,0.00,,SCT042,0.01,VWS V14.01,2013-05-03 18:16:00,
2013-05-03 14:21:00,82.2,71.0,29.73,West,268,5.0,10.0,69,0.00,,SCT042,0.01,VWS V14.01,2013-05-03 18:21:00,
2013-05-03 14:26:00,81.8,71.1,29.73,NW,314,4.0,11.0,70,0.00,,SCT042,0.01,VWS V14.01,2013-05-03 18:26:00,
2013-05-03 14:31:00,81.7,71.8,29.73,NW,305,2.0,11.0,72,0.00,,SCT042,0.01,VWS V14.01,2013-05-03 18:31:00,
2013-05-03 14:36:00,81.7,71.0,29.73,West,276,4.0,11.0,70,0.00,,SCT042,0.01,VWS V14.01,2013-05-03 18:36:00,
2013-05-03 14:41:00,82.0,71.3,29.72,WNW,287,3.0,11.0,70,0.00,,SCT042,0.01,VWS V14.01,2013-05-03 18:41:00,
2013-05-03 14:46:00,82.4,70.8,29.72,WSW,242,2.0,11.0,68,0.00,,SCT042,0.01,VWS V14.01,2013-05-03 18:46:00,
2013-05-03 14:51:00,82.5,71.3,29.72,NW,304,7.0,11.0,69,0.00,,SCT042,0.01,VWS V14.01,2013-05-03 18:51:00,
2013-05-03 14:56:00,82.6,71.0,29.71,West,266,8.0,11.0,68,0.00,,SCT042,0.01,VWS V14.01,2013-05-03 18:56:00,
2013-05-03 15:01:00,82.8,70.3,29.71,West,263,7.0,9.0,66,0.00,,BKN042,0.01,VWS V14.01,2013-05-03 19:01:00,
2013-05-03 15:06:00,82.8,71.2,29.72,SW,231,3.0,9.0,68,0.00,,BKN042,0.01,VWS V14.01,2013-05-03 19:06:00,
2013-05-03 15:11:00,83.0,70.9,29.71,WSW,239,2.0,9.0,67,0.00,,BKN042,0.01,VWS V14.01,2013-05-03 19:11:00,
2013-05-03 15:16:00,83.2,70.7,29.71,West,267,4.0,13.0,66,0.00,,BKN042,0.01,VWS V14.01,2013-05-03 19:16:00,
2013-05-03 15:21:00,83.4,70.9,29.71,WNW,292,8.0,13.0,66,0.00,,BKN042,0.01,VWS V14.01,2013-05-03 19:21:00,
2013-05-03 15:26:00,83.8,71.2,29.70,WNW,285,5.0,13.0,66,0.00,,BKN042,0.01,VWS V14.01,2013-05-03 19:26:00,
2013-05-03 15:31:00,84.1,71.1,29.71,NW,315,5.0,13.0,65,0.00,,BKN042,0.01,VWS V14.01,2013-05-03 19:31:00,
2013-05-03 15:36:00,84.0,70.5,29.70,WNW,301,1.0,13.0,64,0.00,,BKN042,0.01,VWS V14.01,2013-05-03 19:36:00,
2013-05-03 15:41:00,83.6,70.1,29.70,NW,321,5.0,13.0,64,0.00,,BKN042,0.01,VWS V14.01,2013-05-03 19:41:00,
2013-05-03 15:46:00,83.2,70.2,29.70,WNW,294,5.0,13.0,65,0.00,,BKN042,0.01,VWS V14.01,2013-05-03 19:46:00,
2013-05-03 15:51:00,82.9,70.8,29.70,NW,307,8.0,13.0,67,0.00,,BKN042,0.01,VWS V14.01,2013-05-03 19:51:00,
2013-05-03 15:56:00,83.2,71.1,29.70,NW,321,6.0,13.0,67,0.00,,BKN042,0.01,VWS V14.01,2013-05-03 19:56:00,
2013-05-03 16:01:00,83.3,70.8,29.69,WNW,286,0.0,6.0,66,0.00,,SCT100,0.01,VWS V14.01,2013-05-03 20:01:00,
2013-05-03 16:06:00,83.4,70.4,29.69,WSW,245,2.0,8.0,65,0.00,,SCT100,0.01,VWS V14.01,2013-05-03 20:06:00,
2013-05-03 16:11:00,83.7,71.1,29.69,NNW,328,0.0,8.0,66,0.00,,SCT100,0.01,VWS V14.01,2013-05-03 20:11:00,
2013-05-03 16:16:00,83.4,71.3,29.69,West,277,0.0,8.0,67,0.00,,SCT100,0.01,VWS V14.01,2013-05-03 20:16:00,
2013-05-03 16:21:00,83.3,70.3,29.68,NW,316,4.0,8.0,65,0.00,,SCT100,0.01,VWS V14.01,2013-05-03 20:21:00,
2013-05-03 16:26:00,83.4,71.3,29.68,ESE,113,3.0,8.0,67,0.00,,SCT100,0.01,VWS V14.01,2013-05-03 20:26:00,
2013-05-03 16:31:00,83.3,70.8,29.69,SSE,151,5.0,8.0,66,0.00,,SCT100,0.01,VWS V14.01,2013-05-03 20:31:00,
2013-05-03 16:36:00,83.5,69.6,29.69,West,276,6.0,8.0,63,0.00,,SCT100,0.01,VWS V14.01,2013-05-03 20:36:00,
2013-05-03 16:41:00,83.7,69.8,29.69,South,190,2.0,8.0,63,0.00,,SCT100,0.01,VWS V14.01,2013-05-03 20:41:00,
2013-05-03 16:46:00,83.9,71.8,29.70,SE,138,4.0,9.0,67,0.00,,SCT100,0.01,VWS V14.01,2013-05-03 20:46:00,
2013-05-03 16:51:00,83.9,72.7,29.69,South,184,2.0,9.0,69,0.00,,SCT100,0.01,VWS V14.01,2013-05-03 20:51:00,
2013-05-03 16:56:00,83.9,73.1,29.69,SSW,209,3.0,10.0,70,0.00,,SCT100,0.01,VWS V14.01,2013-05-03 20:56:00,
2013-05-03 17:01:00,83.6,72.4,29.69,SSW,196,4.0,6.0,69,0.00,,BKN060,0.01,VWS V14.01,2013-05-03 21:01:00,
2013-05-03 17:06:00,83.4,73.0,29.70,SSE,161,0.0,6.0,71,0.00,,BKN060,0.01,VWS V14.01,2013-05-03 21:06:00,
2013-05-03 17:11:00,83.2,72.8,29.69,SSE,160,3.0,8.0,71,0.00,,BKN060,0.01,VWS V14.01,2013-05-03 21:11:00,
2013-05-03 17:16:00,83.0,72.2,29.69,SSE,153,5.0,10.0,70,0.00,,BKN060,0.01,VWS V14.01,2013-05-03 21:16:00,
2013-05-03 17:21:00,82.7,71.9,29.69,SSE,166,2.0,10.0,70,0.00,,BKN060,0.01,VWS V14.01,2013-05-03 21:21:00,
2013-05-03 17:26:00,82.3,72.8,29.69,ESE,119,4.0,10.0,73,0.00,,BKN060,0.01,VWS V14.01,2013-05-03 21:26:00,
2013-05-03 17:31:00,81.9,71.6,29.69,East,100,3.0,10.0,71,0.00,,BKN060,0.01,VWS V14.01,2013-05-03 21:31:00,
2013-05-03 17:36:00,81.2,71.3,29.69,ESE,117,7.0,10.0,72,0.00,,BKN060,0.01,VWS V14.01,2013-05-03 21:36:00,
2013-05-03 17:41:00,80.6,71.2,29.69,ESE,123,6.0,13.0,73,0.00,,BKN060,0.01,VWS V14.01,2013-05-03 21:41:00,
2013-05-03 17:46:00,80.1,71.5,29.69,ESE,112,8.0,13.0,75,0.00,,BKN060,0.01,VWS V14.01,2013-05-03 21:46:00,
2013-05-03 17:51:00,79.9,71.3,29.69,SE,131,8.0,13.0,75,0.00,,BKN060,0.01,VWS V14.01,2013-05-03 21:51:00,
2013-05-03 17:56:00,79.8,71.6,29.69,SE,133,4.0,13.0,76,0.00,,BKN060,0.01,VWS V14.01,2013-05-03 21:56:00,
2013-05-03 18:01:00,79.6,71.4,29.69,SSE,160,4.0,11.0,76,0.00,,SCT050,0.01,VWS V14.01,2013-05-03 22:01:00,
2013-05-03 18:06:00,79.4,71.6,29.69,ESE,122,7.0,11.0,77,0.00,,SCT050,0.01,VWS V14.01,2013-05-03 22:06:00,
2013-05-03 18:11:00,79.2,71.8,29.69,ESE,122,0.0,11.0,78,0.00,,SCT050,0.01,VWS V14.01,2013-05-03 22:11:00,
2013-05-03 18:16:00,79.1,71.7,29.69,SE,133,0.0,11.0,78,0.00,,SCT050,0.01,VWS V14.01,2013-05-03 22:16:00,
2013-05-03 18:21:00,79.1,71.7,29.69,ESE,111,3.0,11.0,78,0.00,,SCT050,0.01,VWS V14.01,2013-05-03 22:21:00,
2013-05-03 18:26:00,78.9,71.5,29.69,SE,140,6.0,11.0,78,0.00,,SCT050,0.01,VWS V14.01,2013-05-03 22:26:00,
2013-05-03 18:31:00,78.7,71.6,29.68,ESE,122,4.0,11.0,79,0.00,,SCT050,0.01,VWS V14.01,2013-05-03 22:31:00,
2013-05-03 18:36:00,78.6,71.6,29.69,South,173,5.0,11.0,79,0.00,,SCT050,0.01,VWS V14.01,2013-05-03 22:36:00,
2013-05-03 18:41:00,78.5,72.2,29.70,South,174,0.0,11.0,81,0.00,,SCT050,0.01,VWS V14.01,2013-05-03 22:41:00,
2013-05-03 18:46:00,78.5,71.8,29.69,SE,141,3.0,11.0,80,0.00,,BKN110,0.01,VWS V14.01,2013-05-03 22:46:00,
2013-05-03 18:51:00,78.5,71.8,29.69,SE,145,5.0,11.0,80,0.00,,BKN110,0.01,VWS V14.01,2013-05-03 22:51:00,
2013-05-03 18:56:00,78.5,71.8,29.69,SSE,147,7.0,11.0,80,0.00,,BKN110,0.01,VWS V14.01,2013-05-03 22:56:00,
2013-05-03 19:01:00,78.6,71.9,29.70,SSE,155,4.0,6.0,80,0.00,,BKN110,0.01,VWS V14.01,2013-05-03 23:01:00,
2013-05-03 19:06:00,78.7,72.0,29.70,SSE,166,4.0,7.0,80,0.00,,,0.01,VWS V14.01,2013-05-03 23:06:00,
2013-05-03 19:11:00,78.7,71.6,29.70,South,174,6.0,7.0,79,0.00,,,0.01,VWS V14.01,2013-05-03 23:11:00,
2013-05-03 19:16:00,78.9,71.8,29.70,South,184,3.0,12.0,79,0.00,,,0.01,VWS V14.01,2013-05-03 23:16:00,
2013-05-03 19:21:00,78.9,71.8,29.70,SSW,210,6.0,14.0,79,0.00,,,0.01,VWS V14.01,2013-05-03 23:21:00,
2013-05-03 19:26:00,78.7,70.1,29.70,SSW,193,6.0,17.0,75,0.00,,,0.01,VWS V14.01,2013-05-03 23:26:00,
2013-05-03 19:31:00,78.5,70.3,29.70,SSW,210,5.0,17.0,76,0.00,,,0.01,VWS V14.01,2013-05-03 23:31:00,
2013-05-03 19:36:00,78.3,70.1,29.69,SW,219,3.0,17.0,76,0.00,,-RA,0.01,VWS V14.01,2013-05-03 23:36:00,
2013-05-03 19:41:00,78.0,69.8,29.70,South,191,7.0,17.0,76,0.00,,-RA,0.01,VWS V14.01,2013-05-03 23:41:00,
2013-05-03 19:46:00,77.7,69.5,29.70,WSW,239,3.0,17.0,76,0.00,,-RA,0.01,VWS V14.01,2013-05-03 23:46:00,
2013-05-03 19:51:00,77.5,69.7,29.71,SSW,208,3.0,17.0,77,0.00,,-RA,0.01,VWS V14.01,2013-05-03 23:51:00,
2013-05-03 19:56:00,77.3,69.5,29.71,WSW,239,0.0,17.0,77,0.00,,-RA,0.01,VWS V14.01,2013-05-03 23:56:00,
2013-05-03 20:01:00,77.1,69.3,29.70,SW,236,3.0,5.0,77,0.00,,-RA,0.01,VWS V14.01,2013-05-04 00:01:00,
2013-05-03 20:06:00,77.0,69.2,29.70,West,265,2.0,7.0,77,0.00,,BKN110,0.01,VWS V14.01,2013-05-04 00:06:00,
2013-05-03 20:11:00,76.7,69.3,29.70,SW,222,5.0,7.0,78,0.00,,BKN110,0.01,VWS V14.01,2013-05-04 00:11:00,
2013-05-03 20:16:00,76.5,69.1,29.70,SW,235,3.0,9.0,78,0.00,,BKN110,0.01,VWS V14.01,2013-05-04 00:16:00,
2013-05-03 20:21:00,76.3,68.9,29.70,WSW,240,10.0,10.0,78,0.00,,BKN110,0.01,VWS V14.01,2013-05-04 00:21:00,
2013-05-03 20:26:00,76.1,69.1,29.70,SW,229,6.0,10.0,79,0.00,,BKN110,0.01,VWS V14.01,2013-05-04 00:26:00,
2013-05-03 20:31:00,75.8,68.8,29.70,SW,215,2.0,10.0,79,0.00,,BKN110,0.01,VWS V14.01,2013-05-04 00:31:00,
2013-05-03 20:36:00,75.6,68.6,29.70,WSW,241,2.0,10.0,79,0.00,,BKN110,0.01,VWS V14.01,2013-05-04 00:36:00,
2013-05-03 20:41:00,75.3,68.7,29.70,SW,224,2.0,10.0,80,0.00,,BKN110,0.01,VWS V14.01,2013-05-04 00:41:00,
2013-05-03 20:46:00,75.1,68.5,29.70,SW,218,2.0,10.0,80,0.00,,BKN110,0.01,VWS V14.01,2013-05-04 00:46:00,
2013-05-03 20:51:00,74.9,68.7,29.71,SW,217,5.0,10.0,81,0.00,,BKN110,0.01,VWS V14.01,2013-05-04 00:51:00,
2013-05-03 20:56:00,74.7,68.5,29.70,SW,225,3.0,10.0,81,0.00,,BKN110,0.01,VWS V14.01,2013-05-04 00:56:00,
2013-05-03 21:01:00,74.6,68.8,29.70,SSW,201,3.0,4.0,82,0.00,,CLR,0.01,VWS V14.01,2013-05-04 01:01:00,
2013-05-03 21:06:00,74.5,69.0,29.72,SW,223,4.0,5.0,83,0.00,,CLR,0.01,VWS V14.01,2013-05-04 01:06:00,
2013-05-03 21:11:00,74.3,68.8,29.71,SW,216,5.0,6.0,83,0.00,,CLR,0.01,VWS V14.01,2013-05-04 01:11:00,
2013-05-03 21:16:00,74.2,68.7,29.72,SSW,203,3.0,7.0,83,0.00,,CLR,0.01,VWS V14.01,2013-05-04 01:16:00,
2013-05-03 21:21:00,74.0,68.9,29.72,SSW,212,3.0,10.0,84,0.00,,CLR,0.01,VWS V14.01,2013-05-04 01:21:00,
2013-05-03 21:26:00,73.9,68.8,29.72,SSW,212,0.0,10.0,84,0.00,,CLR,0.01,VWS V14.01,2013-05-04 01:26:00,
2013-05-03 21:31:00,73.7,68.6,29.73,SW,226,4.0,10.0,84,0.00,,CLR,0.01,VWS V14.01,2013-05-04 01:31:00,
2013-05-03 21:36:00,73.6,68.5,29.72,South,191,4.0,10.0,84,0.00,,CLR,0.01,VWS V14.01,2013-05-04 01:36:00,
2013-05-03 21:41:00,73.4,68.6,29.73,SW,217,3.0,10.0,85,0.00,,CLR,0.01,VWS V14.01,2013-05-04 01:41:00,
2013-05-03 21:46:00,73.3,68.5,29.73,SW,234,4.0,10.0,85,0.00,,CLR,0.01,VWS V14.01,2013-05-04 01:46:00,
2013-05-03 21:51:00,73.2,68.8,29.73,SSW,200,1.0,11.0,86,0.00,,CLR,0.01,VWS V14.01,2013-05-04 01:51:00,
2013-05-03 21:56:00,73.1,68.7,29.73,SSW,206,0.0,11.0,86,0.00,,CLR,0.01,VWS V14.01,2013-05-04 01:56:00,
2013-05-03 22:01:00,73.1,69.0,29.73,WSW,237,5.0,5.0,87,0.00,,CLR,0.01,VWS V14.01,2013-05-04 02:01:00,
2013-05-03 22:06:00,73.0,68.9,29.74,WSW,241,4.0,10.0,87,0.00,,CLR,0.01,VWS V14.01,2013-05-04 02:06:00,
2013-05-03 22:11:00,72.9,68.8,29.73,SW,217,0.0,10.0,87,0.00,,CLR,0.01,VWS V14.01,2013-05-04 02:11:00,
2013-05-03 22:16:00,72.8,68.7,29.72,WSW,247,4.0,10.0,87,0.00,,CLR,0.01,VWS V14.01,2013-05-04 02:16:00,
2013-05-03 22:21:00,72.6,68.5,29.72,South,183,2.0,10.0,87,0.00,,CLR,0.01,VWS V14.01,2013-05-04 02:21:00,
2013-05-03 22:26:00,72.6,69.2,29.72,SSW,206,1.0,10.0,89,0.00,,CLR,0.01,VWS V14.01,2013-05-04 02:26:00,
2013-05-03 22:31:00,72.5,68.4,29.72,SW,214,3.0,11.0,87,0.00,,CLR,0.01,VWS V14.01,2013-05-04 02:31:00,
2013-05-03 22:36:00,72.5,68.4,29.72,SSW,213,3.0,11.0,87,0.00,,CLR,0.01,VWS V14.01,2013-05-04 02:36:00,
2013-05-03 22:41:00,72.4,68.3,29.72,SSW,211,6.0,13.0,87,0.00,,CLR,0.01,VWS V14.01,2013-05-04 02:41:00,
2013-05-03 22:46:00,72.4,68.3,29.72,SSW,205,5.0,13.0,87,0.00,,CLR,0.01,VWS V14.01,2013-05-04 02:46:00,
2013-05-03 22:51:00,72.3,68.2,29.73,SW,234,4.0,13.0,87,0.00,,CLR,0.01,VWS V14.01,2013-05-04 02:51:00,
2013-05-03 22:56:00,72.3,68.2,29.72,SSW,199,6.0,13.0,87,0.00,,CLR,0.01,VWS V14.01,2013-05-04 02:56:00,
2013-05-03 23:01:00,72.3,68.2,29.73,SW,227,2.0,5.0,87,0.00,,CLR,0.01,VWS V14.01,2013-05-04 03:01:00,
2013-05-03 23:06:00,72.2,68.4,29.73,SW,223,0.0,6.0,88,0.00,,CLR,0.01,VWS V14.01,2013-05-04 03:06:00,
2013-05-03 23:11:00,72.1,68.7,29.74,SW,228,2.0,6.0,89,0.00,,CLR,0.01,VWS V14.01,2013-05-04 03:11:00,
2013-05-03 23:16:00,72.1,68.7,29.74,SSE,153,2.0,7.0,89,0.00,,CLR,0.01,VWS V14.01,2013-05-04 03:16:00,
2013-05-03 23:21:00,71.9,68.2,29.74,SSW,204,4.0,7.0,88,0.00,,CLR,0.01,VWS V14.01,2013-05-04 03:21:00,
2013-05-03 23:26:00,71.9,67.8,29.74,SSW,201,2.0,7.0,87,0.00,,CLR,0.01,VWS V14.01,2013-05-04 03:26:00,
2013-05-03 23:31:00,71.7,67.6,29.74,SSW,200,0.0,7.0,87,0.00,,CLR,0.01,VWS V14.01,2013-05-04 03:31:00,
2013-05-03 23:36:00,71.7,68.0,29.75,WSW,241,0.0,7.0,88,0.00,,CLR,0.01,VWS V14.01,2013-05-04 03:36:00,
2013-05-03 23:41:00,71.7,68.0,29.74,WSW,241,0.0,7.0,88,0.00,,CLR,0.01,VWS V14.01,2013-05-04 03:41:00,
2013-05-03 23:46:00,71.7,67.6,29.74,SW,227,3.0,7.0,87,0.00,,CLR,0.01,VWS V14.01,2013-05-04 03:46:00,
2013-05-03 23:51:00,71.6,67.9,29.74,SSW,203,0.0,7.0,88,0.00,,CLR,0.01,VWS V14.01,2013-05-04 03:51:00,
2013-05-03 23:56:00,71.6,67.9,29.74,SSW,207,0.0,7.0,88,0.00,,CLR,0.01,VWS V14.01,2013-05-04 03:56:00,